This demonstration page uses our WeatherBlox Daily Observations layout. Learn more.

Left ArrowRight Arrow

36.19886, -115.1175

Hourly Observations for November 14, 2015

Temp ( °F °C ) Dew Point ( °F °C ) Humidity (%) Winds ( mph kmh ) Pressure ( in mb ) Visibility ( mi km ) Precip ( " mm )
12:53 am 00:53 Clear 48 8.9 22 -5.6 36 36 NW 5 7 30.09 1019 10 16 0.00 0.00
1:53 am 01:53 Clear 48 8.9 20 -6.7 33 33 NW 5 7 30.09 1019 10 16 0.00 0.00
2:53 am 02:53 Clear 48 8.9 21 -6.1 34 34 W 6 9 30.08 1019 10 16 0.00 0.00
3:53 am 03:53 Clear 44 6.7 21 -6.1 40 40 NW 7 11 30.08 1019 10 16 0.00 0.00
4:53 am 04:53 Clear 44 6.7 23 -5 43 43 WNW 6 9 30.09 1019 10 16 0.00 0.00
5:53 am 05:53 Clear 44 6.7 23 -5 43 43 WNW 6 9 30.11 1020 10 16 0.00 0.00
6:53 am 06:53 Sunny 44 6.7 24 -4.4 45 45 W 5 7 30.12 1020 10 16 0.00 0.00
7:53 am 07:53 Sunny 52 11.1 22 -5.6 31 31 Calm 30.13 1020 10 16 0.00 0.00
8:53 am 08:53 Sunny 56 13.3 23 -5 28 28 Calm 30.12 1020 10 16 0.00 0.00
9:53 am 09:53 Sunny 59 15 22 -5.6 24 24 Calm 30.12 1020 10 16 0.00 0.00
10:53 am 10:53 Sunny 61 16.1 21 -6.1 21 21 VRB 3 6 30.09 1019 10 16 0.00 0.00
11:53 am 11:53 Sunny 63 17.2 20 -6.7 19 19 VRB 3 6 30.06 1018 10 16 0.00 0.00
12:53 pm 12:53 Sunny 65 18.3 20 -6.7 18 18 E 5 7 30.02 1017 10 16 0.00 0.00
1:53 pm 13:53 Sunny 67 19.4 18 -7.8 15 15 VRB 5 7 30.00 1016 10 16 0.00 0.00
2:53 pm 14:53 Sunny 67 19.4 16 -8.9 14 14 SSE 3 6 29.98 1015 10 16 0.00 0.00
3:53 pm 15:53 Sunny 66 18.9 18 -7.8 16 16 S 3 6 29.98 1015 10 16 0.00 0.00
4:53 pm 16:53 Clear 64 17.8 20 -6.7 18 18 S 3 6 29.98 1015 10 16 0.00 0.00
5:53 pm 17:53 Clear 60 15.6 23 -5 24 24 WSW 3 6 30.00 1016 10 16 0.00 0.00
6:53 pm 18:53 Clear 56 13.3 24 -4.4 29 29 WNW 6 9 30.01 1016 10 16 0.00 0.00
7:53 pm 19:53 Clear 52 11.1 22 -5.6 31 31 NW 6 9 30.01 1016 10 16 0.00 0.00
8:53 pm 20:53 Clear 52 11.1 24 -4.4 34 34 WNW 6 9 30.00 1016 10 16 0.00 0.00
9:53 pm 21:53 Clear 48 8.9 23 -5 37 37 NW 5 7 30.00 1016 10 16 0.00 0.00
10:53 pm 22:53 Clear 47 8.3 24 -4.4 41 41 NW 5 7 29.98 1015 10 16 0.00 0.00
11:53 pm 23:53 Clear 47 8.3 22 -5.6 37 37 NW 6 9 29.97 1015 10 16 0.00 0.00

Powered by AerisWeather